FENGYUN 1C DEB, 33655

Orbit data source: Space-Track

FENGYUN 1C DEB, 33655 is space debris in SSO originally from a launch on Mon, 10 May 1999 UTC launched from the Taiyaun Space Center, China (TSC). Fengyun 1C debris stems from the Chinese weather satellite Fengyun-1C, which was intentionally destroyed by a Chinese anti-satellite missile in 2007. This event dramatically increased the amount of space debris, with thousands of trackable fragments posing hazards to satellites and human spaceflight. The Fengyun 1C debris cloud has become a focal point in discussions about space sustainability and the need for international regulations to prevent the creation of new debris.

Loading next visibility...
Identifier
33655, 1999-025DEQ
Orbit
SSO
Country
Flag of CNCN / PRC
Related business
Manufacturer
Unknown
Mission
Spacecraft
Bus & Motor
Unknown
Mass
Unknown
Launch date (UTC)
1999-05-10 (27 years ago)
Launch vehicle
Unknown
Launch site
Taiyaun Space Center, China (TSC)
Object type
Payload
Rocket body
Debris
Shape & HBR
Unknown shape, 0.1 m
Radar Cross Section
Small (<0.1 m²)

Expand to show TLE details & history
Last TLE update: 1 day ago

TLE from 1 day ago
0 FENGYUN 1C DEB
1 33655U 99025DEQ 26106.19416046  .00011929  00000-0  82622-3 0  9998
2 33655  98.7980 192.9486 0038045 311.3148  48.4802 15.05253257984254
Epoch: 2026-04-16T04:39Z
TLE epoch observation values (Epoch: 2026-04-16T04:39:35.463Z)
Latitude
-0.00006°
Longitude
-81.29436°
Altitude
536.334 km
Speed
7.604 km/s
True Right ascension
12h 51m 47s
True Declination
0° 00' 00"
Sunlit
Object was in full shadow at epoch
Visualization orbit readout
Latitude
Unknown
Longitude
Unknown
Altitude
Unknown
Speed
Unknown
Apparent Right ascension
Unknown
Apparent Declination
Unknown
Sunlit
N/A
Visualization observer readout
Local Sidereal Time
13:57:40
Azimuth
Unknown
Elevation
Unknown
Doppler factor
Unknown
Orbital elements
Apogee altitude
574.128 km
Perigee altitude
521.429 km
Semi-major axis
6,925.915 km
Eccentricity
0.0038
Inclination
98.798°
RAAN
192.9486°
Arg. of periapsis
311.3148°
True anomaly
48.80765°
Mean anomaly
48.4802°
Eccentric anomaly
48.64382°
Mean motion
3.76554 °/min
Orbital period
95.6 mins
BSTAR
0.00082622
Loading maneuver chart data...
Computing Atmospheric mass density...
Loading historical data...
Loading historical data...
Loading historical data...
Loading historical data...
Loading historical data...
Loading historical data...
Loading historical data...

Documentation

Showing up to 5 results
|